Location: Newark
(49.1000°N, 0.4667°W)
Time: 10:48:59
(UTC+00:00)

BEESAT 3 - Pass Details

Date: 10 July 2020
Orbit: 482 x 522 km, 64.9° (Epoch: 10 August)

Event Time Altitude Azimuth Distance (km) Brightness Sun altitude
Rises 22:09:11 0° 270° (W) 2,649 ? -14.1°
Reaches altitude 10° 22:12:05 10° 293° (WNW) 1,765 ? -14.3°
Maximum altitude 22:14:35 16° 332° (NNW) 1,426 ? -14.5°
Drops below altitude 10° 22:17:06 10° 12° (NNE) 1,769 ? -14.7°
Sets 22:20:00 0° 34° (NE) 2,657 ? -14.9°
